El Centro, CA

8:37 AM PDT on April 27, 2017 (GMT -0700)
El Centro Naval Air Facility

Weather History for KNJK - January, 2014

Change the Weather History Date:

Friday, January 10, 2014

  Actual Average Record
Temperature  
Mean Temperature 56 °F -  
Max Temperature 73 °F 67 °F 86 °F (2016)
Min Temperature 39 °F 44 °F 37 °F (2006)
Degree Days  
Heating Degree Days 9    
Growing Degree Days 6 (Base 50)    
Moisture  
Dew Point 27 °F    
Average Humidity 37    
Maximum Humidity 55    
Minimum Humidity 16    
Precipitation  
Precipitation 0.00 in - - ()
Sea Level Pressure  
Sea Level Pressure 30.11 in    
Wind  
Wind Speed 5 mph (SW)    
Max Wind Speed 10 mph    
Max Gust Speed -    
Visibility 9 miles    
Events      
Averages and records for this station are not official NWS values.
T = Trace of Precipitation, MM = Missing Value Source: NWS Daily Summary

Daily Weather History Graph

Daily Weather History Graph

Search for Another Location

Airport or City:

Trip Planner

Search our weather history database for the weather conditions in past years. The results will help you decide how hot, cold, wet, or windy it might be!

Date:

Astronomy

Jan. 10, 2014 Rise Set
Actual Time 6:46 AM PST 4:54 PM PST
Civil Twilight 6:19 AM PST 5:21 PM PST
Nautical Twilight 5:48 AM PST 5:52 PM PST
Astronomical Twilight 5:18 AM PST 6:22 PM PST
Moon 12:57 PM PST (1/10) 2:02 AM PST (1/10)
Length of Visible Light 11h 02m
Length of Day
10h 08m
Waxing Gibbous, 76% of the Moon is Illuminated
Jan 10
Waxing Gibbous
Jan 15
Full
Jan 23
Last Quarter
Jan 30
New
Feb 6
First Quarter

Hourly Weather History & Observations

Time (PST) Temp. Windchill Dew Point Humidity Pressure Visibility Wind Dir Wind Speed Gust Speed Precip Events Conditions
12:56 AM 43.0 °F 38.2 °F 21.0 °F 42% 30.07 in 9.0 mi West 8.1 mph - N/A   Clear
1:56 AM 43.0 °F 39.5 °F 19.0 °F 38% 30.08 in 10.0 mi WSW 5.8 mph - N/A   Clear
2:56 AM 44.1 °F 38.6 °F 19.9 °F 38% 30.09 in 9.0 mi WSW 10.4 mph - N/A   Clear
3:56 AM 46.0 °F 43.9 °F 19.0 °F 34% 30.09 in 9.0 mi WSW 4.6 mph - N/A   Clear
4:56 AM 39.9 °F 37.8 °F 19.0 °F 43% 30.11 in 10.0 mi WSW 3.5 mph - N/A   Clear
5:56 AM 41.0 °F 39.0 °F 23.0 °F 49% 30.11 in 10.0 mi WSW 3.5 mph - N/A   Partly Cloudy
6:56 AM 41.0 °F 36.4 °F 21.9 °F 47% 30.13 in 5.0 mi West 6.9 mph - N/A   Haze
7:56 AM 44.1 °F 42.5 °F 25.0 °F 47% 30.15 in 5.0 mi WSW 3.5 mph - N/A   Haze
8:56 AM 55.0 °F - 26.1 °F 33% 30.16 in 10.0 mi Calm Calm - N/A   Partly Cloudy
9:56 AM 60.1 °F - 27.0 °F 28% 30.17 in 10.0 mi SSW 3.5 mph - N/A   Partly Cloudy
10:56 AM 64.9 °F - 26.1 °F 23% 30.15 in 10.0 mi SE 5.8 mph - N/A   Partly Cloudy
11:56 AM 68.0 °F - 27.0 °F 21% 30.12 in 10.0 mi Variable 4.6 mph - N/A   Partly Cloudy
12:56 PM 71.1 °F - 30.9 °F 23% 30.08 in 10.0 mi East 4.6 mph - N/A   Partly Cloudy
1:56 PM 73.0 °F - 24.1 °F 16% 30.07 in 10.0 mi SE 5.8 mph - N/A   Mostly Cloudy
2:56 PM 73.9 °F - 28.0 °F 18% 30.06 in 9.0 mi ESE 5.8 mph - N/A   Mostly Cloudy
3:56 PM 73.0 °F - 30.9 °F 21% 30.05 in 8.0 mi East 10.4 mph - N/A   Mostly Cloudy
4:56 PM 70.0 °F - 30.0 °F 23% 30.07 in 9.0 mi Calm Calm - N/A   Scattered Clouds
5:56 PM 63.0 °F - 33.1 °F 33% 30.09 in 10.0 mi Calm Calm - N/A   Scattered Clouds
6:56 PM 55.0 °F - 32.0 °F 42% 30.11 in 8.0 mi NNE 4.6 mph - N/A   Clear
7:09 PM 55.0 °F - 35.1 °F 47% 30.06 in 2.5 mi North 5.8 mph - N/A   Haze
7:26 PM 54.0 °F - 37.9 °F 55% 30.07 in 6.0 mi North 5.8 mph - N/A   Haze
7:56 PM 52.0 °F - 35.1 °F 53% 30.13 in 10.0 mi North 4.6 mph - N/A   Clear
8:56 PM 51.1 °F - 33.1 °F 50% 30.15 in 10.0 mi SW 4.6 mph - N/A   Clear
9:56 PM 52.0 °F - 30.0 °F 43% 30.16 in 10.0 mi SW 4.6 mph - N/A   Clear
10:56 PM 48.9 °F - 27.0 °F 43% 30.16 in 10.0 mi SW 3.5 mph - N/A   Clear
11:56 PM 48.9 °F - 27.0 °F 43% 30.16 in 9.0 mi SW 3.5 mph - N/A   Clear